Terminal Aerodrome Forecast
Issued by NWS Tiyan, Guam

Home | Current Version | Previous Version | Text Only | Print | Product List | Glossary On
Versions: 1 2 3 4 5 6 7 8 9 10 11 12 13 14
000
FTPQ31 PGUM 220520
TAFGUM
TAF
PGUM 220520Z 2206/2312 05017G25KT P6SM VCSH SCT016 BKN040 BKN120
      TEMPO 2206/2209 -SHRA SCT015 BKN028 BKN060
     FM220900 05012KT P6SM VCSH FEW018 SCT050 BKN140=

USA.gov is the U.S. government's official web portal to all federal, state and local government web resources and services.